GFSGBSN_con_3kmhel_072.txt.gz
Helicity
114 113 106 95 87 80 82 80 80 78 74 71 72 65 64 76 79 81 73 71 62 56 38 33 33 26 15 81 46 98 142 134 95 70 94 123 134 129 115 104 101 108 84 67 73 50 57
113 105 93 90 81 87 83 74 63 73 77 79 70 73 69 71 82 79 70 69 72 62 31 22 25 33 29 91 36 69 106 111 86 80 104 116 91 105 109 82 104 88 65 27 39 27 59
103 105 102 86 97 79 66 63 60 67 59 41 38 36 39 57 81 71 72 82 71 53 25 12 28 58 54 79 55 52 44 46 94 91 92 100 116 117 121 97 73 64 50 34 51 66 90
87 90 97 78 82 74 73 75 76 70 66 45 41 45 49 65 62 65 94 87 92 68 24 35 66 105 70 43 52 53 55 54 49 79 74 84 119 111 109 101 101 84 84 80 28 104 106
80 81 89 87 93 110 94 96 74 62 61 44 30 30 32 58 60 88 104 92 83 46 65 33 89 86 40 59 61 87 84 72 77 107 88 106 128 106 110 109 100 122 95 86 81 34 77
74 74 83 86 93 80 64 51 59 58 52 41 41 39 38 55 67 110 112 71 28 32 47 26 86 78 53 53 85 103 72 66 68 91 116 144 167 146 167 172 139 115 121 103 76 60 56
79 80 61 59 58 54 46 41 54 58 49 47 46 40 50 78 92 105 75 15 77 63 69 70 67 124 31 46 47 67 100 116 97 95 89 143 177 175 105 142 146 125 80 41 95 98 39
62 54 63 61 73 78 72 66 69 54 38 29 21 14 32 69 100 87 48 -16 -9 -9 -22 85 149 108 91 65 67 86 137 85 95 81 106 142 123 75 98 96 93 97 101 76 82 65 56
63 68 85 75 70 88 84 78 47 33 26 20 10 9 26 76 52 74 34 56 72 50 -14 29 31 46 62 47 100 55 135 168 122 88 93 115 101 157 123 92 80 90 110 124 118 27 46
74 82 88 103 88 67 56 53 45 37 29 28 25 21 32 84 64 61 46 38 62 23 -10 -16 28 24 43 58 50 62 48 163 128 67 89 76 89 89 127 119 72 59 70 74 106 101 78
69 70 76 69 55 48 41 35 34 38 34 30 30 19 23 31 38 44 33 57 54 30 73 27 31 15 30 18 59 75 18 120 109 110 105 77 66 105 121 65 19 15 58 104 139 132 96
66 56 43 36 34 34 39 39 39 37 37 32 24 11 20 29 45 20 52 68 65 102 55 104 68 52 58 40 40 39 58 74 70 93 89 60 72 70 60 63 46 35 80 76 114 122 97
46 36 36 30 35 28 28 28 39 44 44 36 30 7 20 47 56 39 67 108 156 172 144 134 118 94 76 78 59 59 81 72 79 80 68 84 79 141 138 92 89 110 68 110 115 189 186
27 37 45 55 45 46 52 49 49 57 62 50 43 27 67 67 51 53 96 187 212 212 140 122 78 59 41 107 91 112 120 126 102 114 77 64 116 60 64 82 93 95 67 134 116 120 79
45 44 43 41 43 56 53 54 63 70 76 65 58 58 71 51 43 68 171 267 212 241 210 161 48 66 125 160 145 155 104 152 118 177 105 68 79 43 60 79 85 61 61 118 117 110 73
46 49 50 31 42 42 43 54 67 74 88 81 70 81 80 70 26 121 223 252 271 329 282 181 112 142 143 214 183 203 92 89 86 65 127 73 74 41 62 117 107 68 67 101 112 99 9
30 44 46 41 39 50 54 56 81 91 104 89 100 102 107 81 68 186 190 205 217 208 228 211 207 162 156 152 175 151 177 122 159 129 72 134 101 78 53 38 69 69 74 55 68 94 121
17 37 45 39 41 51 65 77 95 107 115 114 106 125 65 80 154 148 189 161 146 160 136 143 113 53 27 105 120 120 210 246 79 146 112 221 115 84 40 31 62 103 81 52 32 26 87
28 34 39 40 54 59 68 82 107 122 120 124 145 116 91 103 190 175 109 108 85 103 84 102 126 116 160 157 192 113 134 274 344 87 110 53 100 121 119 81 123 98 54 67 71 26 41
41 44 37 38 48 59 71 83 100 119 103 126 146 138 99 117 93 129 128 76 58 46 20 33 58 60 106 91 94 146 88 61 172 284 72 59 93 59 67 65 17 58 80 32 -6 47 67
49 32 34 43 46 55 62 79 86 92 94 129 122 100 80 139 118 93 47 77 44 46 12 45 16 48 106 93 106 86 91 56 102 91 89 113 87 75 29 5 -32 -19 2 45 -38 -6 20
32 41 48 44 31 42 59 66 52 56 82 135 145 111 65 68 71 81 55 55 36 18 -9 24 38 187 145 64 82 117 78 80 65 43 220 166 85 43 18 15 22 -25 27 -14 -10 -5 22
47 43 37 34 42 43 41 35 35 54 96 137 110 68 104 60 67 82 50 36 27 72 71 24 40 89 94 65 72 103 40 47 33 40 28 36 16 21 -35 23 42 11 -28 24 0 -6 42
33 28 29 36 40 41 43 38 33 61 81 118 92 90 123 63 45 45 22 40 43 52 20 104 27 4 23 45 42 38 41 54 39 23 25 31 24 2 -45 -33 -26 -1 62 -6 20 41 26
43 33 44 36 35 31 35 26 27 37 66 98 82 88 95 48 30 25 -18 -15 50 71 14 10 33 -29 -30 -46 12 54 72 54 54 20 16 42 41 18 -50 -39 -5 30 55 51 32 103 16
42 41 30 25 21 18 13 0 -4 -5 33 102 77 91 83 56 20 36 55 44 50 74 48 21 33 -20 -40 -77 47 79 80 76 50 60 91 96 67 50 29 -16 -37 -5 92 139 17 68 65
41 35 20 38 28 20 10 0 -3 0 36 99 45 105 90 53 39 57 67 56 49 52 39 39 9 -17 -43 -7 26 182 109 79 88 78 42 59 52 33 29 17 19 35 -32 -33 -1 47 1
37 33 35 25 15 7 9 -7 -17 -15 6 94 57 100 129 72 33 49 34 45 70 55 38 -4 16 -15 44 18 12 64 94 81 82 69 53 37 24 31 41 32 20 39 64 52 38 39 13
32 29 22 23 13 15 -1 -23 -31 -27 -21 62 89 112 122 102 52 48 26 10 34 67 9 16 15 6 -2 92 65 21 53 58 58 70 53 47 32 13 21 35 45 37 9 68 116 55 9

GFSGBSN_con_3kmhel_075.txt.gz
Helicity
179 164 169 158 140 125 107 98 89 73 71 76 86 87 96 95 95 84 94 96 93 73 47 34 34 39 29 83 68 90 143 136 116 93 73 97 120 120 127 104 119 120 102 91 82 50 39
191 183 150 143 119 103 108 94 71 59 63 77 88 92 86 73 60 48 63 86 90 58 27 17 29 57 56 135 54 77 120 98 78 88 88 99 66 61 78 83 90 63 50 66 66 34 31
210 150 151 130 108 97 85 69 69 66 98 98 89 67 60 68 66 67 63 86 77 51 33 18 43 98 69 73 86 81 64 63 84 88 94 83 75 93 73 73 74 62 53 81 44 47 84
139 138 151 125 96 97 86 84 113 113 106 97 64 63 66 73 58 56 78 98 58 21 36 65 85 112 69 58 57 60 82 64 47 87 79 64 84 101 95 82 79 61 42 56 80 51 43
137 94 104 103 83 83 84 91 108 93 79 70 68 61 62 54 44 70 93 82 42 56 81 68 103 93 31 65 75 61 74 87 82 81 57 98 101 92 92 81 66 75 79 58 56 44 74
131 76 78 81 79 77 79 76 59 56 60 59 53 48 49 49 68 87 83 39 29 69 60 45 73 44 36 73 54 55 78 58 62 77 116 119 140 129 122 88 80 30 38 46 61 92 103
146 71 52 69 76 71 53 46 48 59 56 50 47 47 47 56 59 51 37 31 56 40 56 84 100 99 42 62 56 79 111 93 124 102 78 104 123 100 84 86 47 52 41 37 33 41 42
153 75 77 66 76 90 89 80 72 70 59 41 16 19 30 36 30 37 5 11 -2 14 18 74 64 47 36 34 55 113 155 126 108 87 96 103 59 50 68 66 50 44 36 37 16 -8 25
145 113 95 60 52 69 76 82 74 52 29 20 18 17 36 48 11 30 7 17 10 9 -5 -22 33 36 18 50 63 70 141 150 119 114 95 75 67 75 69 66 60 45 33 36 11 29 19
111 83 56 63 67 65 71 62 44 32 28 17 23 25 45 65 31 20 2 22 9 28 -8 13 15 18 26 19 52 25 31 131 154 52 92 74 79 84 78 73 67 54 8 -14 -2 6 33
97 57 49 54 59 56 44 37 33 26 24 24 25 25 32 33 7 15 21 15 4 18 93 41 31 8 35 23 28 20 -19 15 87 130 99 70 54 57 46 47 66 30 22 -20 -3 -5 17
37 31 31 44 43 33 30 30 27 28 30 28 25 17 19 14 7 18 24 19 31 57 59 101 87 74 68 52 37 30 20 31 39 73 73 66 65 51 34 52 58 51 26 12 -13 23 30
29 29 34 41 30 17 18 22 34 37 30 17 6 10 16 18 21 27 21 36 69 90 132 147 122 108 94 51 58 50 78 78 77 77 68 53 52 58 68 51 52 37 49 36 3 29 51
20 35 46 43 37 33 40 42 43 39 32 10 5 28 20 4 21 26 38 96 115 163 163 158 96 70 82 111 78 91 85 88 82 105 75 71 84 33 34 21 71 49 60 57 29 15 13
37 38 36 33 33 37 37 40 41 37 29 11 20 30 44 48 43 54 109 151 183 245 219 188 113 105 111 179 130 144 84 96 70 106 61 44 72 35 29 18 -2 40 37 59 57 53 49
46 42 38 28 25 28 20 36 38 34 25 22 29 41 92 45 40 95 144 186 249 271 229 193 206 239 235 211 199 238 113 119 125 49 87 92 63 58 39 45 89 58 54 64 62 63 56
30 42 37 38 31 29 30 33 35 36 30 19 33 70 87 79 65 128 153 192 229 202 208 254 264 263 261 193 183 179 201 179 224 174 73 107 99 76 38 20 30 57 83 52 52 66 71
10 25 29 36 33 33 35 41 42 42 33 56 49 79 71 78 111 117 159 154 142 150 127 121 124 121 113 150 143 144 184 195 209 210 115 109 96 70 37 61 29 41 50 53 77 54 33
14 18 22 33 34 34 36 42 57 58 60 53 72 81 73 84 141 150 117 119 105 120 82 67 67 97 119 127 113 124 131 141 114 319 224 127 91 72 116 98 132 96 71 42 47 67 18
47 34 35 25 35 36 36 46 64 72 78 83 97 107 108 109 93 125 103 90 117 47 26 19 5 9 13 30 56 90 84 96 44 118 335 208 76 102 132 191 109 87 62 -3 -39 31 62
36 31 20 33 27 17 29 54 73 87 99 97 103 115 113 152 123 106 77 65 85 77 6 -8 15 51 107 60 34 35 63 70 -67 -13 75 136 111 79 49 34 10 23 42 38 -15 -10 59
22 22 31 34 25 22 36 52 76 91 97 116 130 140 123 128 100 99 88 86 71 35 -31 18 14 3 149 93 44 55 79 61 -6 54 -12 78 115 63 62 22 13 -1 -9 -8 -19 -40 -9
34 26 38 26 25 42 42 55 63 81 95 115 91 89 118 106 94 108 106 96 70 21 20 12 6 56 7 22 53 15 55 65 67 33 21 42 99 116 122 90 60 -16 -17 29 5 8 13
35 41 39 32 35 37 40 44 45 72 86 94 83 98 113 98 58 73 82 68 25 6 -8 0 -30 -59 -1 -21 12 0 9 31 40 30 4 41 18 15 76 88 31 25 56 -14 -1 11 37
42 39 37 26 31 32 33 44 70 68 93 104 78 81 95 76 44 30 44 47 45 13 12 12 0 -14 -31 -46 -50 -2 -8 19 16 30 53 1 12 13 54 56 54 11 54 72 28 22 46
51 63 41 49 31 25 28 30 31 39 66 82 49 61 62 63 38 18 43 48 53 42 30 27 5 -9 -74 -63 -15 15 0 34 25 -20 44 36 47 56 37 18 12 7 30 45 -12 24 88
43 35 39 33 24 25 21 18 12 16 41 68 12 68 56 53 21 36 56 48 39 47 36 55 4 -4 -65 -47 45 2 98 55 71 48 32 55 62 30 15 5 1 36 45 0 8 46 13
34 36 38 27 34 36 27 20 15 21 34 59 22 55 96 53 32 51 37 45 61 56 37 20 19 -5 -27 -5 -19 122 139 94 83 97 93 60 42 28 11 5 -5 67 42 46 49 32 2
28 25 31 38 34 24 15 18 20 17 26 54 19 53 98 61 26 48 47 37 46 41 19 15 22 56 -8 35 63 39 50 63 77 82 66 81 79 46 19 54 54 40 35 27 73 51 34

GFSGBSN_con_3kmhel_078.txt.gz
Helicity
256 239 314 255 198 160 159 155 155 140 127 118 103 90 87 89 85 80 73 70 57 43 43 37 38 35 21 48 64 113 115 115 89 58 45 49 73 83 98 128 109 78 66 61 46 42 31
299 288 277 218 198 169 159 166 161 129 116 119 102 84 79 79 67 50 51 53 50 25 28 22 32 55 42 71 105 64 68 71 59 60 73 74 92 60 121 93 79 144 61 59 47 35 22
290 300 261 212 220 201 155 133 149 134 125 115 104 89 80 61 44 40 50 55 50 29 18 24 44 64 63 44 89 70 71 74 73 40 49 57 85 90 140 77 60 72 70 43 26 20 27
293 307 301 292 189 151 136 148 141 113 96 95 101 96 66 58 47 45 55 50 34 28 45 69 87 87 83 79 65 43 62 54 46 53 51 77 90 70 92 104 57 49 54 54 39 40 28
323 305 241 225 201 146 124 109 98 93 96 92 76 62 68 59 67 71 54 47 36 47 70 52 53 56 59 60 41 52 32 57 65 68 72 111 124 97 85 62 66 43 74 46 67 17 50
251 212 227 223 161 78 81 84 72 79 68 51 52 60 63 61 68 63 66 21 27 44 33 26 64 38 34 87 62 42 40 34 59 73 72 118 114 87 65 64 83 27 29 39 33 58 75
142 150 175 138 77 69 69 67 62 48 45 50 52 52 66 51 44 37 28 -3 2 16 49 12 64 22 18 66 61 70 111 69 44 72 35 51 67 36 18 30 29 56 40 26 18 17 35
120 159 143 99 61 76 92 74 62 48 50 50 47 42 22 30 17 30 20 42 21 6 17 4 -11 -1 -14 4 47 49 116 92 74 60 74 78 21 29 45 40 29 7 9 6 5 15 19
166 173 171 115 69 71 62 58 50 54 45 31 28 29 37 53 2 12 49 26 -2 -7 -24 33 33 22 29 10 20 47 64 74 67 60 57 62 93 96 20 16 28 10 4 19 32 49 13
124 146 155 112 84 64 52 41 47 43 32 30 30 36 43 41 -7 11 18 15 -3 -16 -3 77 39 40 26 -0 16 2 -14 54 82 70 70 66 58 49 33 36 54 50 69 43 22 4 29
105 104 96 51 30 39 32 46 35 31 35 33 34 30 42 52 13 14 9 -20 -6 -17 111 56 49 24 39 8 23 40 -13 3 37 52 79 133 75 33 16 15 55 49 94 49 15 3 16
119 108 77 37 21 5 26 33 26 28 32 28 27 26 31 13 2 6 -26 -31 -8 3 96 87 81 77 96 55 48 55 20 -2 22 32 31 52 53 65 26 49 34 86 28 6 -13 -5 -2
140 133 28 -9 -2 16 24 22 26 25 28 23 21 23 10 -0 13 -13 -24 -11 -8 51 105 127 112 111 104 85 60 47 53 56 36 38 27 51 21 11 40 30 34 20 23 21 -5 11 17
86 21 14 -6 34 36 37 34 24 21 24 26 24 5 2 17 7 3 -4 13 53 157 153 153 111 84 73 115 97 91 69 63 50 48 75 70 26 26 22 1 60 -0 -11 44 44 22 50
23 -19 10 49 42 32 30 23 17 21 27 24 2 2 20 30 26 19 17 52 169 173 172 173 124 106 118 137 142 102 72 93 127 56 94 94 74 68 28 26 -13 38 20 55 37 -5 17
-6 13 32 32 29 27 21 20 16 16 15 20 4 21 43 37 35 34 49 151 162 185 180 163 158 217 200 233 196 192 115 170 152 137 114 124 97 70 65 42 37 35 69 44 27 31 16
25 36 39 30 28 20 18 15 6 -10 13 4 10 21 32 37 12 54 86 141 142 156 169 190 211 198 178 188 198 207 189 166 201 173 107 70 75 71 63 24 21 39 16 37 57 56 53
21 22 23 35 28 23 26 19 8 1 5 7 15 37 38 15 52 72 94 103 106 143 115 111 101 106 100 114 139 129 147 208 130 181 164 91 95 48 16 43 62 47 36 13 55 37 46
15 18 5 34 23 27 30 31 24 8 9 10 41 50 38 20 69 74 79 64 67 116 140 108 82 62 55 52 91 63 103 103 60 98 161 179 97 65 38 46 49 38 58 76 76 52 59
8 16 16 19 41 30 36 32 20 -0 10 9 34 47 58 84 84 93 74 77 77 90 88 47 25 20 16 -10 -14 25 26 70 81 71 -52 177 107 80 79 78 122 79 47 27 36 22 54
42 41 27 9 32 34 37 34 23 7 4 16 52 71 76 99 105 110 80 61 53 58 46 2 35 3 18 12 21 -14 -30 41 111 28 -34 -81 80 56 70 151 314 132 76 47 15 23 20
35 10 -3 13 25 28 36 28 14 3 5 42 67 85 100 144 120 109 92 81 56 46 28 32 2 5 -2 20 -3 6 33 48 73 94 -2 -8 39 60 53 41 42 78 19 32 25 8 -4
1 -4 -2 26 34 30 33 24 13 5 -4 54 80 88 94 115 121 114 116 92 58 9 15 1 -15 -18 -12 28 8 6 3 15 56 132 43 -4 29 120 108 70 62 89 -3 -0 13 10 22
-30 13 35 51 46 38 26 21 22 34 8 43 54 72 87 117 110 133 115 66 38 3 -11 -16 -20 -35 -3 8 9 33 46 15 45 81 58 -29 101 224 151 121 95 86 66 41 20 17 55
26 41 44 54 35 30 31 33 31 40 27 30 48 41 50 82 66 74 68 46 37 26 -7 -14 -4 16 6 -12 -53 -31 -16 4 35 43 26 -5 24 62 92 97 144 46 66 83 70 32 63
13 50 26 31 25 24 27 35 42 40 38 31 23 12 19 47 34 10 21 30 29 31 20 16 13 1 -30 -37 -54 -27 5 15 9 4 14 16 25 45 48 98 123 57 50 79 40 4 96
39 36 39 29 33 36 31 31 28 20 31 13 -3 -5 -2 2 -10 -0 5 9 26 22 13 18 27 15 -31 -32 -11 40 76 13 38 27 67 44 21 28 43 48 25 32 35 23 36 61 48
38 45 41 36 35 35 28 22 12 5 39 1 -10 -6 -18 -17 -32 -1 -0 -2 15 16 -3 21 21 1 7 -8 -24 85 141 57 57 66 46 17 25 35 27 32 38 77 33 45 61 34 51
17 24 11 33 34 36 39 27 17 23 34 2 -3 6 1 -16 -25 -12 -1 6 30 17 -14 9 14 19 14 23 19 65 100 65 68 62 77 84 83 83 74 61 49 40 55 42 37 40 39

GFSGBSN_con_3kmhel_081.txt.gz
Helicity
295 248 291 272 242 240 239 265 197 141 166 181 174 140 120 132 121 97 83 78 58 51 36 20 19 29 19 52 52 156 89 53 52 25 22 33 35 55 85 78 68 78 70 71 83 64 84
363 309 363 308 294 243 241 266 223 184 154 166 194 158 132 114 94 80 76 54 42 34 29 14 17 33 23 62 124 79 49 42 7 21 21 34 50 38 97 130 111 65 97 105 75 73 81
405 403 437 392 331 262 245 297 228 202 177 188 174 154 128 108 86 76 67 36 24 13 6 10 24 25 36 16 70 54 48 40 42 21 14 38 34 81 95 91 68 92 86 73 49 37 35
506 479 402 315 288 229 252 278 228 164 161 150 139 123 117 99 70 61 38 18 20 23 26 33 50 23 68 74 41 35 33 34 30 25 25 23 47 54 48 63 75 60 57 80 48 13 48
526 427 295 261 286 314 319 274 226 126 109 113 106 104 103 66 50 48 29 17 17 36 56 45 16 14 47 55 31 54 19 14 46 42 60 76 65 49 59 87 87 46 84 84 44 32 29
525 390 349 366 434 402 435 351 215 96 77 75 88 84 63 50 53 61 62 31 27 32 -12 -5 13 20 30 95 77 53 28 14 25 55 59 56 74 67 61 52 104 36 31 31 45 42 70
499 421 408 409 392 319 225 162 78 62 65 65 63 62 53 57 86 90 72 24 21 27 8 5 58 4 37 36 35 20 81 32 36 58 55 44 78 70 22 58 27 71 89 63 91 69 41
348 269 204 170 174 195 172 79 54 56 52 51 64 53 42 69 69 31 -3 33 60 45 42 32 32 27 9 10 27 19 43 46 54 39 56 87 60 17 41 42 60 42 45 38 18 5 -36
217 100 108 127 158 210 162 69 58 52 29 58 57 46 58 63 6 3 62 49 21 14 20 71 44 33 26 -7 13 32 1 5 25 44 56 72 6 99 91 51 38 34 25 38 54 58 15
175 215 180 123 151 172 109 54 21 21 46 54 49 64 69 77 18 29 37 21 15 -0 24 93 51 40 21 -17 9 10 -5 -20 25 36 41 68 53 68 57 37 46 45 16 66 50 24 9
144 132 132 110 135 125 65 24 38 37 57 57 60 68 81 61 34 21 42 12 13 -2 116 60 66 37 7 5 26 58 18 18 2 29 54 30 65 57 70 39 43 32 101 73 23 13 33
161 141 117 113 87 34 14 -7 5 51 41 49 64 80 87 27 15 24 -1 -2 -1 27 145 74 66 65 55 47 51 93 38 19 14 19 18 2 17 53 38 80 58 12 64 11 -13 -9 14
122 112 115 117 96 55 -19 -8 22 46 56 48 58 57 42 25 30 -5 -6 -6 14 64 61 108 89 52 81 45 71 75 47 43 39 35 8 -9 23 38 49 41 67 49 16 35 19 20 25
134 151 151 120 8 -23 -5 21 51 51 41 39 43 34 28 29 13 8 -6 -6 43 137 156 119 82 52 43 64 75 72 60 45 19 26 42 57 35 93 66 -4 31 48 46 68 99 40 35
125 129 107 53 -5 2 29 38 33 42 43 43 43 20 21 26 25 17 5 22 117 155 133 105 60 31 46 133 112 134 64 59 30 58 63 26 15 141 75 41 -2 51 33 -5 21 45 34
122 66 -18 -24 12 28 19 29 35 34 42 50 29 14 31 26 27 17 25 78 106 129 112 97 90 148 164 206 220 158 175 107 137 140 67 62 58 46 39 44 15 8 53 60 33 36 29
8 -20 -18 11 21 11 5 11 19 31 41 46 7 24 33 32 30 20 40 110 100 113 103 113 153 162 176 204 224 183 183 95 125 145 142 75 38 26 67 56 3 40 29 55 71 48 41
-16 -27 6 33 27 8 7 32 33 29 45 16 24 48 30 29 26 33 57 83 85 104 64 100 119 157 161 155 122 112 113 131 48 91 131 147 139 64 24 12 5 56 20 21 51 52 49
10 13 18 26 18 12 21 37 29 28 42 38 49 45 20 26 45 50 76 86 85 67 68 66 84 86 79 58 85 46 62 42 67 94 55 137 145 88 38 33 34 64 33 41 69 50 33
19 14 1 15 22 15 22 21 21 17 56 75 42 42 25 36 59 112 89 83 81 49 66 56 73 47 53 55 25 37 16 6 49 71 22 -17 85 118 100 61 94 90 5 74 46 69 56
22 17 13 17 25 24 15 24 24 31 57 64 41 31 43 38 52 96 74 63 81 64 59 59 79 74 60 61 23 18 45 31 43 9 43 15 55 81 91 104 34 -9 97 47 25 26 40
24 46 30 6 -2 16 18 23 31 40 46 45 38 34 34 86 91 90 103 90 78 98 78 135 71 59 40 1 3 10 -6 5 22 54 88 52 -61 45 83 61 45 76 156 165 92 90 65
49 40 -8 -3 -9 14 19 26 32 30 30 36 26 27 22 100 60 66 113 107 86 70 63 55 68 52 13 4 -8 -28 -12 -8 -4 27 87 45 29 -64 27 29 58 51 104 69 32 56 54
25 -3 -15 7 5 23 14 22 24 1 28 38 26 34 56 39 53 81 96 58 54 53 51 42 36 18 4 -1 2 1 35 53 38 14 52 48 28 56 126 112 69 61 113 52 55 44 107
8 -32 -13 17 31 34 25 23 13 2 -5 37 26 43 48 51 60 64 28 23 27 28 34 33 30 23 1 6 -13 5 -4 18 34 16 14 14 -21 54 73 88 121 36 113 76 87 78 100
9 -8 18 15 34 32 35 29 17 2 -4 6 22 13 35 39 25 24 11 7 11 32 38 39 19 15 8 14 22 55 66 15 -12 -27 -8 -19 -37 8 76 104 127 99 61 77 75 40 74
-6 -21 27 34 39 26 36 30 24 17 -5 -13 18 -18 14 2 -14 -26 -12 -7 15 28 25 19 6 5 13 2 20 33 1 51 27 -42 -6 -8 -21 69 114 107 84 137 49 48 70 87 58
-15 11 43 54 48 44 34 26 21 13 4 -13 4 -24 -17 -26 -42 -37 -41 -35 -3 12 25 -3 -14 24 8 26 -4 -51 132 33 50 39 10 25 36 12 44 61 72 146 38 80 63 42 49
24 56 58 52 51 46 34 33 22 11 6 -19 1 -22 -27 -29 -25 -40 -48 -66 -57 -53 -27 -16 -2 15 8 17 6 27 164 66 90 26 67 58 62 84 77 105 79 50 57 64 58 46 40

GFSGBSN_con_3kmhel_087.txt.gz
Helicity
284 265 261 296 268 291 287 274 229 223 198 200 154 150 141 122 115 103 101 99 72 38 29 39 54 68 94 104 56 103 50 49 46 76 75 51 66 81 73 96 51 49 47 64 70 66 58
287 327 341 380 320 340 347 309 275 255 231 228 191 169 173 162 134 123 107 107 77 50 38 45 60 70 102 94 70 95 16 30 30 54 53 44 52 39 102 115 125 108 101 94 89 55 63
286 373 391 408 401 395 410 375 304 269 232 219 174 169 166 168 150 119 116 107 84 50 46 44 49 62 102 66 71 84 46 36 38 38 41 29 49 95 76 97 95 91 113 94 109 127 114
287 378 518 381 479 506 494 405 318 261 306 234 213 175 182 171 141 119 119 100 77 51 33 31 46 66 81 29 65 42 49 42 52 40 25 13 33 70 73 82 62 137 134 132 95 77 55
235 356 406 396 551 567 522 454 338 306 295 249 227 215 209 201 144 123 111 82 57 41 28 42 70 76 85 59 59 13 11 15 19 51 38 23 91 67 55 78 124 129 131 124 85 43 27
185 289 304 455 656 596 560 507 323 279 262 305 325 257 216 214 206 141 105 77 43 59 50 63 80 110 63 82 32 45 30 28 44 52 45 46 90 79 83 110 170 134 154 145 145 72 -10
168 229 341 612 652 711 631 442 322 304 332 281 241 224 247 221 193 125 65 96 136 162 89 104 97 93 68 67 25 51 40 38 49 53 69 60 107 69 61 81 77 68 56 84 66 44 37
163 165 453 630 816 726 516 393 397 339 201 166 214 226 170 107 91 71 74 172 126 93 121 25 -23 9 16 39 45 -1 23 45 61 51 32 68 116 71 35 10 51 78 90 107 80 47 46
148 334 611 790 712 559 476 417 318 174 151 201 188 150 94 50 76 73 60 82 33 67 101 58 34 11 25 65 33 50 28 -5 37 54 54 78 45 96 64 -4 60 59 93 94 93 74 92
593 814 807 705 697 608 467 286 177 170 215 193 162 58 75 73 100 76 49 44 36 36 163 72 58 54 67 18 48 -17 27 23 35 27 11 31 -6 -13 -11 79 118 118 101 72 73 67 69
978 995 804 707 581 347 236 177 201 213 181 154 98 146 70 46 98 89 7 35 33 40 252 56 31 53 37 47 87 45 32 20 26 -3 44 33 -6 19 23 -2 68 54 53 87 90 55 19
278 319 269 171 151 203 235 242 224 177 113 99 80 16 61 77 60 27 38 56 53 150 211 73 49 22 21 23 16 85 38 24 15 31 4 -20 -11 -3 29 30 73 41 63 95 70 78 36
236 206 172 234 233 214 193 179 175 145 69 24 29 52 67 58 23 24 54 59 151 221 42 122 83 61 44 74 32 40 61 76 56 64 67 60 60 65 83 46 104 63 86 139 101 108 85
204 232 237 161 167 195 191 141 90 121 117 -16 45 87 76 46 6 61 76 88 214 100 159 143 173 103 51 41 42 32 99 91 30 46 58 89 82 21 111 167 175 110 134 129 110 51 -22
117 131 136 150 135 126 97 168 188 -31 -3 65 129 73 39 23 53 61 69 145 184 138 124 134 100 27 43 60 76 112 105 62 63 90 176 152 131 112 109 204 203 138 105 155 87 27 -9
104 88 69 70 51 79 129 102 -63 -29 45 94 69 51 57 39 47 46 78 150 78 100 78 90 55 110 112 183 226 242 173 159 261 51 68 175 144 125 89 56 71 112 67 110 145 37 -4
116 103 89 66 124 126 74 -4 -33 10 25 60 79 77 43 16 50 86 100 149 12 5 78 96 138 155 166 109 146 189 193 174 130 213 112 152 250 168 92 93 125 98 83 90 72 80 4
82 79 89 103 103 7 -36 -44 -5 50 88 34 58 73 59 62 76 66 99 93 113 32 46 76 103 98 96 138 117 123 121 146 117 119 117 109 146 204 132 3 73 135 39 53 49 40 66
58 70 74 32 -17 -16 -10 33 36 55 61 72 52 42 66 55 58 80 84 100 108 55 90 76 99 116 120 96 102 108 137 104 84 95 119 105 183 136 54 43 80 151 41 100 81 62 9
57 75 51 -14 -10 -7 -3 35 59 48 90 119 106 80 79 78 115 88 79 44 65 105 87 75 111 79 101 118 111 122 96 93 103 113 79 84 94 129 136 93 108 112 203 167 20 36 6
29 4 -13 -22 -6 22 23 34 69 85 135 97 63 82 81 62 82 72 95 59 67 45 48 44 76 76 89 110 118 110 106 123 109 79 76 82 61 54 53 13 4 3 247 156 111 71 -40
8 -6 -8 20 18 22 42 62 79 95 125 66 97 95 80 80 75 45 59 53 60 50 67 92 80 86 83 116 132 90 82 77 96 -12 56 35 81 44 23 7 14 -34 98 135 123 30 -12
6 16 24 31 29 29 44 58 70 106 122 108 110 111 89 36 32 30 21 44 103 100 46 50 73 96 108 102 95 45 29 41 70 0 17 70 111 53 -37 9 72 -58 -64 15 70 14 48
2 14 19 24 35 37 43 64 86 120 122 111 126 106 93 34 15 12 69 88 72 69 64 50 83 88 89 58 7 -5 43 58 50 55 86 113 122 60 10 43 74 -61 29 8 190 169 183
5 9 13 22 25 34 58 79 98 112 117 133 160 126 109 58 51 68 68 70 52 34 51 48 33 61 52 26 30 10 68 41 47 91 116 160 75 42 19 34 20 2 88 237 139 213 273
35 11 -7 -10 3 34 69 87 87 80 117 118 98 109 116 124 160 129 86 47 41 41 35 57 50 39 25 44 31 35 52 25 35 35 68 117 57 -22 -12 -33 -17 76 145 375 232 182 171
24 29 -2 -8 28 49 58 75 74 63 85 80 104 105 130 137 121 99 79 44 19 20 39 43 11 23 26 22 38 32 38 2 10 24 60 0 -3 34 23 -15 -17 -8 225 342 295 232 98
27 16 4 -3 21 33 53 51 63 69 73 77 99 73 109 110 92 77 38 27 2 -1 19 0 45 16 19 11 2 -15 23 63 201 61 52 35 -1 17 32 -15 0 82 103 189 172 68 46
25 27 9 11 37 49 56 52 53 62 67 87 65 38 75 52 18 7 -12 -23 2 26 18 8 32 29 14 14 12 1 30 46 99 201 43 9 71 -2 33 58 17 10 19 41 50 43 21

GFSGBSN_con_3kmhel_093.txt.gz
Helicity
144 129 119 130 175 217 212 212 232 234 228 210 178 165 142 105 82 100 96 106 90 102 100 104 119 112 99 116 129 119 94 54 66 77 63 84 158 188 221 179 188 231 157 135 131 146 141
107 107 96 114 155 173 193 208 240 246 278 255 244 226 192 160 125 123 124 98 99 98 112 123 127 118 109 113 63 95 95 116 95 97 102 92 121 166 246 222 222 207 228 187 148 144 130
93 105 94 97 143 167 198 223 256 260 261 308 276 268 234 184 154 145 114 98 86 92 103 110 113 107 109 110 101 165 130 90 92 80 108 92 133 219 241 166 151 122 127 133 86 69 76
125 116 70 84 128 194 202 217 250 241 317 297 314 342 251 170 177 172 142 135 139 130 120 142 97 104 134 58 120 77 64 34 18 53 43 91 100 151 155 114 161 141 123 155 78 120 69
136 113 69 81 130 175 253 218 228 257 370 402 425 286 268 190 183 182 172 170 162 145 117 122 119 130 71 106 100 73 148 97 56 73 73 108 121 161 146 162 177 171 168 132 109 61 72
121 91 59 68 121 153 215 241 220 292 382 493 436 326 235 258 206 154 161 156 197 180 161 182 204 125 81 118 100 83 72 78 73 115 154 145 245 206 170 240 231 157 188 143 89 65 95
60 70 51 87 130 141 184 215 249 347 483 601 445 365 282 264 136 108 138 162 158 157 234 245 75 129 168 161 129 101 86 108 96 150 162 146 250 134 106 135 181 137 127 103 69 76 90
44 63 29 79 120 151 149 186 316 499 560 580 505 427 290 154 120 114 171 153 147 199 138 53 113 93 93 135 227 88 91 165 170 149 182 237 162 53 97 136 136 127 105 70 70 85 74
36 80 33 45 104 142 130 173 434 572 673 563 542 369 296 199 177 161 122 81 191 147 150 128 145 162 66 120 126 105 112 140 166 157 164 195 65 161 139 170 163 128 128 96 101 81 60
56 104 126 61 101 116 181 336 588 682 647 684 554 402 267 289 205 206 163 77 131 77 193 146 175 132 119 156 125 51 87 127 133 100 122 111 29 44 127 136 128 117 90 100 87 60 53
43 167 367 574 447 376 534 681 791 702 584 564 456 369 343 260 311 252 235 132 46 128 236 87 136 88 126 254 140 106 49 118 108 111 155 85 93 110 83 65 62 75 49 78 80 63 29
197 125 216 574 752 1061 799 650 546 587 548 444 241 198 157 186 192 264 220 68 109 289 155 120 150 196 254 128 181 150 116 66 74 109 86 68 17 54 57 40 48 44 79 113 103 100 72
181 232 248 251 299 390 366 144 202 209 208 162 112 120 170 197 285 197 126 122 450 346 158 137 158 138 117 162 199 138 130 177 166 192 159 107 105 94 72 103 71 124 167 136 120 136 125
138 147 190 216 235 233 191 194 169 123 99 79 84 137 142 140 112 137 114 524 438 142 314 126 116 64 139 184 171 158 162 169 196 115 85 105 129 147 144 124 103 111 141 191 115 138 103
114 118 125 138 144 138 117 107 110 100 97 97 96 111 136 105 114 64 182 458 382 286 168 178 224 160 170 174 166 179 194 189 164 171 122 88 98 112 85 103 78 85 113 100 164 146 133
95 83 93 109 113 97 95 88 74 64 70 91 144 148 149 62 30 61 268 359 203 48 139 135 203 184 199 170 187 197 188 218 137 145 114 86 85 96 94 41 136 117 145 191 286 190 218
53 52 62 72 74 76 80 73 73 60 78 91 132 205 76 56 45 93 273 213 80 78 134 134 115 127 132 144 154 212 210 200 172 122 105 62 56 92 68 87 58 77 142 196 196 208 203
43 31 16 18 28 38 46 63 68 32 -24 39 136 186 -19 -4 73 66 78 111 97 116 101 94 104 103 121 124 160 187 179 172 113 74 79 105 72 39 31 35 95 66 112 65 149 178 251
50 60 59 77 66 47 43 29 -29 -69 -21 -22 32 74 39 13 118 30 88 113 92 81 99 88 99 95 87 114 127 190 208 256 240 110 103 86 116 88 106 112 121 192 220 229 132 117 138
41 59 83 69 50 39 22 -30 -33 16 37 60 93 132 64 12 33 20 79 86 83 128 80 107 88 111 132 156 201 169 192 177 155 86 91 57 122 110 89 80 109 140 154 184 186 238 212
24 19 32 25 14 14 6 -5 11 45 56 44 41 71 72 48 51 26 51 31 12 19 99 120 111 109 103 109 137 136 137 123 111 102 105 97 97 101 86 76 99 106 101 105 159 152 169
37 41 24 14 -13 -32 -9 14 44 100 91 61 66 71 57 71 71 122 69 30 69 101 81 90 93 116 107 85 87 80 81 81 84 117 126 140 132 115 92 56 42 55 51 55 59 67 112
40 35 42 15 2 9 28 41 63 88 41 46 40 106 110 131 77 70 77 102 70 100 121 97 73 72 70 34 24 31 53 64 77 92 120 121 115 138 86 73 66 70 50 23 48 72 112
36 29 21 19 15 18 50 102 107 110 57 47 59 103 80 77 92 88 89 132 120 71 60 74 61 56 26 23 32 50 56 57 74 86 133 124 144 145 94 101 72 66 90 -71 82 157 109
35 8 17 25 26 36 61 103 130 137 77 59 60 92 82 125 130 115 113 97 97 81 97 84 57 26 22 54 71 82 91 95 63 30 61 98 169 160 142 100 10 5 22 -58 85 67 167
33 18 12 27 43 36 72 122 115 105 82 54 105 105 135 136 104 95 98 53 65 63 74 48 27 30 37 48 66 105 126 111 70 66 33 79 102 126 53 -5 -4 10 -14 -54 -38 46 145
15 23 23 23 40 67 80 87 95 115 99 59 108 143 135 90 126 73 76 61 26 41 38 22 9 15 17 49 100 124 116 46 62 67 25 34 29 41 21 8 25 -13 1 66 36 84 113
39 31 30 21 36 56 62 60 85 92 81 57 121 170 94 62 146 92 61 40 28 5 16 -20 2 0 29 64 91 77 48 15 26 21 15 25 26 31 15 2 28 -18 -5 75 114 101 46
62 54 46 20 32 46 51 53 67 76 74 69 119 171 160 66 91 90 72 48 5 -17 2 -16 -16 -19 -1 41 29 15 11 -8 4 12 36 9 14 -20 22 16 3 -27 4 46 42 37 22

GFSGBSN_con_3kmhel_096.txt.gz
Helicity
129 126 115 98 86 90 92 125 182 212 203 193 172 183 157 145 115 119 119 115 94 100 103 115 122 117 103 125 100 117 157 127 146 135 131 149 172 170 171 152 177 212 187 152 152 142 129
100 99 98 83 75 80 85 120 160 205 228 206 196 206 207 175 160 121 143 132 117 124 104 128 129 129 122 139 97 109 79 111 154 167 134 132 93 103 209 194 195 194 157 150 149 106 116
86 93 101 106 88 80 101 112 162 209 258 225 213 255 263 260 200 160 173 180 188 156 157 142 133 120 144 152 164 166 178 119 109 136 149 125 121 207 216 187 158 154 164 162 125 116 110
74 77 91 99 95 54 80 119 124 221 249 231 227 262 303 283 244 181 198 245 212 198 184 158 131 107 148 71 119 128 153 113 135 110 121 119 145 188 210 151 177 179 181 186 116 109 92
67 63 75 100 107 69 57 83 100 151 235 264 289 280 393 393 322 279 235 204 140 154 181 163 141 148 50 119 107 88 200 138 122 102 103 136 188 226 245 200 185 206 177 158 143 82 108
57 50 65 104 112 94 69 90 119 118 188 245 313 365 474 423 345 310 236 148 83 90 106 145 147 157 125 132 67 87 98 119 171 132 201 199 261 291 284 257 239 151 188 191 174 93 123
60 45 50 108 120 96 91 105 153 167 209 238 352 498 497 393 393 289 185 101 24 51 175 216 261 262 203 98 121 108 130 171 173 223 280 272 323 358 88 208 228 219 190 146 114 103 109
61 45 40 90 95 36 76 99 145 191 207 263 433 585 495 493 394 263 251 141 187 166 97 58 -13 101 49 184 188 136 168 301 277 270 233 333 248 114 135 155 183 188 175 121 91 93 93
74 45 31 62 72 46 57 97 126 181 250 342 465 554 570 480 422 302 216 166 140 123 133 63 108 152 145 94 129 165 143 199 236 264 230 234 207 152 166 205 215 167 166 114 114 137 92
82 46 28 68 77 52 54 78 124 191 304 448 630 620 549 496 369 287 192 103 72 204 175 66 83 117 234 287 217 37 101 186 201 172 183 170 120 93 145 224 167 165 104 104 105 107 99
87 89 69 63 141 238 260 190 207 335 536 753 701 772 547 568 479 404 301 190 167 157 254 98 121 124 178 327 227 175 160 209 174 181 184 191 127 144 214 104 156 97 83 100 109 104 105
104 133 102 140 181 357 549 698 849 949 984 945 638 588 582 414 463 261 275 218 321 272 209 146 142 146 206 197 245 181 239 153 89 175 177 151 103 102 106 93 104 88 116 124 129 108 98
64 115 163 168 148 159 323 495 710 710 407 241 166 181 261 250 267 196 159 237 301 198 174 142 134 157 160 202 300 255 211 282 264 350 290 159 137 83 72 130 118 139 144 131 132 148 111
76 85 125 170 189 219 204 198 180 138 135 130 115 93 116 133 169 195 281 440 325 212 203 218 157 151 185 220 263 254 281 270 265 228 241 225 242 180 163 127 118 113 112 139 127 99 43
75 88 102 121 129 142 152 152 132 124 134 115 88 107 115 31 60 117 284 338 259 234 289 348 239 176 302 259 234 234 299 276 214 203 191 165 160 117 154 139 117 119 137 124 136 156 92
75 72 77 78 83 95 115 126 123 105 89 69 136 148 119 62 77 173 248 350 295 306 267 159 213 301 270 245 221 283 229 196 194 172 123 117 142 93 102 79 169 161 134 144 199 164 156
52 59 59 70 78 91 84 78 77 80 64 60 142 177 116 91 110 150 257 277 223 87 80 110 89 288 183 194 232 206 192 160 138 131 118 93 96 105 126 131 103 114 136 160 169 206 212
38 39 41 41 42 60 61 71 77 79 118 133 172 225 74 66 248 241 225 181 62 119 61 139 75 156 208 176 193 206 167 152 161 119 93 90 71 72 73 96 57 110 164 210 246 283 282
48 36 19 9 19 52 47 71 78 57 53 145 212 213 59 63 220 208 171 156 102 67 78 71 134 102 104 90 103 117 137 209 186 121 85 62 74 71 61 99 111 146 159 163 156 187 225
113 59 32 45 64 56 43 49 40 9 -17 62 136 222 124 16 51 121 106 76 41 96 68 69 59 74 88 110 150 143 191 217 221 116 118 85 103 93 94 135 141 137 145 142 135 180 162
72 93 91 96 65 47 23 29 -25 -21 -20 1 61 122 42 74 48 39 40 58 109 74 57 77 115 106 122 162 136 135 150 150 125 97 91 88 86 96 80 107 119 116 98 97 160 154 201
60 50 53 52 54 32 34 20 10 25 -7 28 121 98 45 22 -16 42 67 34 57 66 78 79 83 93 94 83 105 93 97 92 84 113 102 109 111 100 98 84 87 91 62 73 53 55 103
39 24 27 40 33 28 24 17 28 35 13 56 26 60 68 81 70 68 36 57 59 98 123 112 57 82 96 75 57 41 44 55 71 88 112 106 109 110 100 115 101 146 83 97 99 12 9
54 49 39 45 19 12 23 55 51 62 6 50 56 79 41 82 79 49 56 113 100 73 63 95 75 66 48 45 39 51 62 60 67 78 91 112 130 125 107 79 163 88 105 44 27 17 101
54 49 47 38 8 27 41 54 73 77 29 46 44 60 69 53 76 135 161 153 157 131 112 104 81 48 34 47 63 66 74 91 127 89 58 60 104 86 115 120 112 49 103 47 6 37 51
38 34 43 40 39 42 63 78 96 97 47 54 77 53 66 99 129 142 137 88 90 76 89 69 52 39 36 51 63 72 75 89 108 88 78 86 98 90 73 22 -31 25 24 -30 -40 59 -13
31 27 25 8 36 53 63 86 119 104 61 45 60 81 101 76 121 98 61 53 44 59 55 45 36 34 27 58 74 81 87 71 110 70 43 25 30 29 22 35 40 32 -16 -61 10 -15 -34
12 26 29 30 46 51 67 80 93 83 60 69 103 120 77 55 119 77 69 70 64 36 37 9 26 18 29 52 69 73 100 55 53 23 23 13 29 29 36 77 45 -16 -42 5 40 31 31
6 46 36 22 48 60 61 56 74 73 76 76 116 166 172 79 103 105 101 79 25 -13 8 -9 -10 -3 4 44 46 33 47 13 26 35 14 4 -2 33 54 54 -16 -21 7 22 66 41 42